User: anonymous
Location: Vallejo Observatory
(38.1221°N, 122.2109°W)
Time: 18:33:11
(UTC-07:00)
Language:

MOS 1 Rocket - Orbit

View from above orbital plane
View from above orbital plane
View from above satellite
View from above satellite

Ground track
Ground track

The orbit data is extracted from the following two-line orbital elements,

1 17528U 87018B   14234.31050781  .00000156  00000-0  44838-4 0  4477
2 17528 097.4592 296.1501 0152408 285.7926 113.7900 14.50021913450583
Epoch (UTC): 22 August 2014 07:27:07
Eccentricity: 0.0152408
inclination: 97.4592°
perigee height: 617 km
apogee height: 834 km
right ascension of ascending node: 296.1501°
argument of perigee: 285.7926°
revolutions per day: 14.50021913
mean anomaly at epoch: 113.7900°
orbit number at epoch: 45058

The dashed part of the orbit path shows where the satellite is in the earth's shadow,  

DLR